CMP790 MPTO-SKBQ

Flight info

Callsign CMP790
Flight time 0h 49m
Altitude 33000
Route REMAL1B REMAL DCT PONPO DCT BOGAL UL335 CTG CTG1A
Aircraft B737/M-SDE2E3FGHIRWXY/LB1

Departure

Time 2026-04-21 15:06
Airport Tocumen International Airport (MPTO)

Arrival

Time 2026-04-21 15:56
Airport Ernesto Cortissoz International Airport (SKBQ)
Time Latitude Longitude Altitude Speed Heading
2026-04-21 14:32 9.06734 -79.38569 50 ft 0 kts 299°
2026-04-21 14:59 9.06726 -79.38555 50 ft 4 kts 299°
2026-04-21 15:00 9.06713 -79.38531 50 ft 4 kts 299°
2026-04-21 15:00 9.06699 -79.38508 50 ft 4 kts 307°
2026-04-21 15:00 9.06680 -79.38489 50 ft 4 kts 334°
2026-04-21 15:00 9.06657 -79.38485 50 ft 3 kts 26°
2026-04-21 15:01 9.06650 -79.38489 50 ft 0 kts 29°
2026-04-21 15:03 9.06651 -79.38488 50 ft 1 kts 29°
2026-04-21 15:03 9.06669 -79.38478 48 ft 5 kts 29°
2026-04-21 15:03 9.06711 -79.38454 50 ft 9 kts 29°
2026-04-21 15:03 9.06783 -79.38413 50 ft 14 kts 30°
2026-04-21 15:04 9.06874 -79.38401 48 ft 15 kts 309°
2026-04-21 15:04 9.06941 -79.38468 50 ft 14 kts 356°
2026-04-21 15:04 9.07021 -79.38432 50 ft 12 kts 29°
2026-04-21 15:04 9.07089 -79.38394 50 ft 11 kts 29°
2026-04-21 15:05 9.07161 -79.38420 50 ft 15 kts 301°
2026-04-21 15:05 9.07262 -79.38655 54 ft 18 kts 281°
2026-04-21 15:05 9.07316 -79.38711 56 ft 10 kts 23°
2026-04-21 15:06 9.07433 -79.38640 55 ft 46 kts 30°
2026-04-21 15:06 9.07925 -79.38345 76 ft 115 kts 31°
2026-04-21 15:06 9.08771 -79.37837 171 ft 162 kts 29°
2026-04-21 15:06 9.09756 -79.37261 867 ft 161 kts 27°
2026-04-21 15:07 9.10650 -79.36662 1775 ft 153 kts 49°
2026-04-21 15:07 9.10950 -79.35562 2234 ft 183 kts 96°
2026-04-21 15:07 9.10590 -79.34209 2584 ft 215 kts 103°
2026-04-21 15:07 9.10125 -79.32663 2830 ft 240 kts 104°
2026-04-21 15:08 9.09634 -79.31013 3418 ft 252 kts 103°
2026-04-21 15:08 9.09131 -79.29288 4147 ft 259 kts 103°
2026-04-21 15:08 9.08634 -79.27531 5010 ft 261 kts 103°
2026-04-21 15:08 9.08146 -79.25757 5873 ft 263 kts 103°
2026-04-21 15:09 9.07667 -79.23976 6594 ft 262 kts 102°
2026-04-21 15:09 9.07190 -79.22185 6925 ft 266 kts 102°
2026-04-21 15:09 9.06713 -79.20381 6977 ft 265 kts 102°
2026-04-21 15:09 9.06238 -79.18582 6985 ft 265 kts 103°
2026-04-21 15:10 9.05793 -79.16798 6977 ft 264 kts 97°
2026-04-21 15:10 9.05644 -79.14930 7095 ft 273 kts 89°
2026-04-21 15:10 9.05624 -79.12985 7869 ft 277 kts 88°
2026-04-21 15:10 9.05617 -79.11031 8779 ft 280 kts 89°
2026-04-21 15:11 9.05603 -79.09060 9784 ft 281 kts 89°
2026-04-21 15:11 9.05581 -79.07078 10684 ft 283 kts 90°
2026-04-21 15:11 9.05561 -79.05063 11457 ft 291 kts 88°
2026-04-21 15:11 9.05953 -79.02968 11732 ft 317 kts 73°
2026-04-21 15:12 9.06678 -79.00768 12006 ft 340 kts 71°
2026-04-21 15:12 9.07492 -78.98471 12606 ft 351 kts 71°
2026-04-21 15:12 9.08324 -78.96134 13403 ft 355 kts 72°
2026-04-21 15:12 9.09153 -78.93773 14187 ft 358 kts 72°
2026-04-21 15:13 9.09980 -78.91377 14876 ft 363 kts 72°
2026-04-21 15:13 9.10804 -78.88951 15630 ft 366 kts 72°
2026-04-21 15:13 9.11629 -78.86498 16321 ft 371 kts 72°
2026-04-21 15:13 9.12460 -78.84012 17051 ft 374 kts 72°
2026-04-21 15:14 9.13293 -78.81503 17761 ft 379 kts 72°
2026-04-21 15:14 9.14135 -78.78961 18405 ft 383 kts 72°
2026-04-21 15:14 9.14983 -78.76400 19023 ft 385 kts 72°
2026-04-21 15:14 9.15836 -78.73820 19595 ft 388 kts 72°
2026-04-21 15:15 9.16695 -78.71218 20203 ft 391 kts 72°
2026-04-21 15:15 9.17559 -78.68603 20782 ft 394 kts 72°
2026-04-21 15:15 9.18431 -78.65962 21350 ft 396 kts 72°
2026-04-21 15:15 9.19307 -78.63308 21920 ft 399 kts 72°
2026-04-21 15:16 9.20189 -78.60635 22462 ft 402 kts 72°
2026-04-21 15:16 9.21077 -78.57941 22993 ft 405 kts 72°
2026-04-21 15:16 9.21959 -78.55270 23518 ft 407 kts 72°
2026-04-21 15:16 9.22858 -78.52542 23957 ft 410 kts 72°
2026-04-21 15:17 9.23762 -78.49797 24339 ft 413 kts 72°
2026-04-21 15:17 9.24676 -78.47023 24697 ft 417 kts 72°
2026-04-21 15:17 9.25598 -78.44223 25066 ft 421 kts 72°
2026-04-21 15:17 9.26527 -78.41404 25446 ft 424 kts 72°
2026-04-21 15:18 9.27462 -78.38564 25829 ft 427 kts 72°
2026-04-21 15:18 9.28405 -78.35699 26175 ft 431 kts 72°
2026-04-21 15:18 9.29355 -78.32810 26513 ft 434 kts 72°
2026-04-21 15:18 9.30313 -78.29898 26862 ft 437 kts 72°
2026-04-21 15:19 9.31277 -78.26965 27205 ft 441 kts 72°
2026-04-21 15:19 9.32248 -78.24011 27534 ft 444 kts 73°
2026-04-21 15:19 9.33225 -78.21037 27871 ft 447 kts 73°
2026-04-21 15:19 9.34209 -78.18044 28196 ft 450 kts 73°
2026-04-21 15:20 9.35199 -78.15028 28512 ft 453 kts 73°
2026-04-21 15:20 9.36196 -78.11993 28814 ft 456 kts 73°
2026-04-21 15:20 9.37199 -78.08936 29113 ft 459 kts 73°
2026-04-21 15:20 9.38208 -78.05861 29417 ft 462 kts 73°
2026-04-21 15:21 9.39221 -78.02773 29819 ft 462 kts 73°
2026-04-21 15:21 9.40232 -77.99691 30263 ft 461 kts 73°
2026-04-21 15:21 9.41241 -77.96616 30676 ft 460 kts 73°
2026-04-21 15:21 9.42248 -77.93544 31078 ft 459 kts 73°
2026-04-21 15:22 9.43254 -77.90470 31452 ft 460 kts 73°
2026-04-21 15:22 9.44260 -77.87399 31863 ft 460 kts 73°
2026-04-21 15:22 9.45265 -77.84331 32324 ft 458 kts 73°
2026-04-21 15:22 9.46266 -77.81273 32793 ft 457 kts 73°
2026-04-21 15:23 9.47252 -77.78257 33020 ft 460 kts 73°
2026-04-21 15:23 9.48261 -77.75169 33014 ft 462 kts 73°
2026-04-21 15:23 9.50277 -77.69005 33009 ft 457 kts 73°
2026-04-21 15:24 9.52268 -77.62910 33033 ft 456 kts 73°
2026-04-21 15:24 9.54282 -77.56738 33034 ft 468 kts 73°
2026-04-21 15:25 9.56344 -77.50413 33031 ft 477 kts 73°
2026-04-21 15:25 9.58443 -77.43978 33024 ft 483 kts 73°
2026-04-21 15:26 9.60547 -77.37522 33017 ft 483 kts 73°
2026-04-21 15:26 9.62652 -77.31059 33017 ft 483 kts 73°
2026-04-21 15:27 9.64753 -77.24602 33020 ft 483 kts 73°
2026-04-21 15:27 9.66854 -77.18138 33018 ft 482 kts 73°
2026-04-21 15:28 9.68951 -77.11683 33018 ft 482 kts 73°
2026-04-21 15:28 9.71047 -77.05229 33018 ft 482 kts 73°
2026-04-21 15:29 9.73139 -76.98780 33019 ft 482 kts 73°
2026-04-21 15:29 9.75230 -76.92329 33016 ft 481 kts 73°
2026-04-21 15:30 9.77318 -76.85884 33015 ft 481 kts 73°
2026-04-21 15:30 9.79406 -76.79437 33018 ft 482 kts 73°
2026-04-21 15:31 9.81480 -76.73025 33014 ft 482 kts 73°
2026-04-21 15:31 9.83568 -76.66568 33014 ft 482 kts 73°
2026-04-21 15:32 9.85656 -76.60104 33011 ft 482 kts 73°
2026-04-21 15:32 9.87742 -76.53642 33012 ft 482 kts 73°
2026-04-21 15:33 9.89828 -76.47176 33010 ft 483 kts 73°
2026-04-21 15:33 9.91915 -76.40700 33016 ft 483 kts 73°
2026-04-21 15:34 9.94004 -76.34217 33008 ft 484 kts 73°
2026-04-21 15:34 9.95038 -76.31007 32993 ft 473 kts 73°
2026-04-21 15:34 9.96049 -76.27867 32992 ft 463 kts 73°
2026-04-21 15:35 9.97031 -76.24819 32990 ft 447 kts 73°
2026-04-21 15:35 9.97979 -76.21874 32987 ft 431 kts 73°
2026-04-21 15:35 9.98892 -76.19035 32989 ft 416 kts 73°
2026-04-21 15:35 9.99775 -76.16289 32983 ft 402 kts 73°
2026-04-21 15:36 10.00627 -76.13638 32990 ft 389 kts 73°
2026-04-21 15:36 10.01450 -76.11075 32984 ft 376 kts 73°
2026-04-21 15:36 10.02246 -76.08597 32987 ft 363 kts 73°
2026-04-21 15:36 10.03014 -76.06203 32981 ft 351 kts 73°
2026-04-21 15:37 10.04514 -76.01526 33017 ft 352 kts 73°
2026-04-21 15:37 10.06062 -75.96688 33021 ft 367 kts 73°
2026-04-21 15:38 10.07610 -75.91862 32989 ft 356 kts 73°
2026-04-21 15:38 10.09128 -75.87127 32977 ft 352 kts 73°
2026-04-21 15:39 10.09882 -75.84772 32699 ft 350 kts 73°
2026-04-21 15:39 10.10634 -75.82421 32282 ft 350 kts 73°
2026-04-21 15:39 10.11385 -75.80075 31781 ft 349 kts 73°
2026-04-21 15:39 10.12135 -75.77732 31234 ft 350 kts 73°
2026-04-21 15:40 10.12892 -75.75365 30403 ft 359 kts 73°
2026-04-21 15:40 10.13686 -75.72876 28959 ft 382 kts 73°
2026-04-21 15:40 10.14524 -75.70251 27489 ft 400 kts 73°
2026-04-21 15:40 10.15394 -75.67528 26236 ft 410 kts 73°
2026-04-21 15:41 10.16274 -75.64776 25356 ft 408 kts 72°
2026-04-21 15:41 10.17140 -75.62069 24695 ft 399 kts 72°
2026-04-21 15:41 10.17987 -75.59419 24049 ft 391 kts 72°
2026-04-21 15:41 10.18817 -75.56819 23319 ft 384 kts 72°
2026-04-21 15:42 10.19636 -75.54255 22472 ft 379 kts 72°
2026-04-21 15:42 10.20459 -75.51726 21614 ft 376 kts 69°
2026-04-21 15:42 10.21225 -75.50157 21022 ft 375 kts 56°
2026-04-21 15:42 10.22863 -75.48110 20227 ft 372 kts 49°
2026-04-21 15:43 10.24595 -75.46176 19334 ft 371 kts 48°
2026-04-21 15:43 10.26944 -75.43612 17830 ft 378 kts 48°
2026-04-21 15:43 10.28159 -75.42286 17004 ft 380 kts 48°
2026-04-21 15:43 10.30542 -75.39665 15474 ft 382 kts 48°
2026-04-21 15:44 10.31756 -75.38322 14739 ft 382 kts 48°
2026-04-21 15:44 10.33545 -75.36332 13659 ft 381 kts 48°
2026-04-21 15:44 10.35298 -75.34375 12605 ft 378 kts 48°
2026-04-21 15:44 10.37040 -75.32427 12091 ft 370 kts 48°
2026-04-21 15:45 10.38789 -75.30468 11532 ft 379 kts 48°
2026-04-21 15:45 10.40545 -75.28501 10948 ft 370 kts 48°
2026-04-21 15:45 10.42232 -75.26609 10412 ft 353 kts 48°
2026-04-21 15:45 10.43816 -75.24833 10259 ft 326 kts 47°
2026-04-21 15:46 10.45285 -75.23187 10100 ft 305 kts 47°
2026-04-21 15:46 10.46672 -75.21631 9937 ft 292 kts 47°
2026-04-21 15:46 10.48037 -75.20099 9555 ft 292 kts 47°
2026-04-21 15:46 10.49398 -75.18573 9191 ft 291 kts 47°
2026-04-21 15:47 10.50755 -75.17050 8820 ft 290 kts 47°
2026-04-21 15:47 10.52109 -75.15532 8454 ft 290 kts 47°
2026-04-21 15:47 10.53460 -75.14015 8096 ft 289 kts 47°
2026-04-21 15:47 10.54809 -75.12501 7729 ft 289 kts 48°
2026-04-21 15:48 10.56154 -75.10991 7370 ft 288 kts 48°
2026-04-21 15:48 10.57500 -75.09479 7005 ft 288 kts 48°
2026-04-21 15:48 10.58841 -75.07974 6638 ft 285 kts 48°
2026-04-21 15:48 10.60161 -75.06492 6251 ft 281 kts 48°
2026-04-21 15:49 10.61463 -75.05030 5870 ft 278 kts 47°
2026-04-21 15:49 10.62747 -75.03587 5527 ft 281 kts 47°
2026-04-21 15:49 10.64080 -75.02090 5143 ft 280 kts 48°
2026-04-21 15:49 10.65350 -75.00662 4785 ft 272 kts 48°
2026-04-21 15:50 10.66618 -74.99238 4433 ft 272 kts 48°
2026-04-21 15:50 10.67886 -74.97811 4264 ft 269 kts 48°
2026-04-21 15:50 10.69123 -74.96421 4106 ft 260 kts 48°
2026-04-21 15:50 10.70314 -74.95081 3994 ft 250 kts 48°
2026-04-21 15:51 10.71459 -74.93794 3871 ft 240 kts 48°
2026-04-21 15:51 10.72556 -74.92560 3760 ft 231 kts 48°
2026-04-21 15:51 10.73624 -74.91343 3509 ft 230 kts 50°
2026-04-21 15:51 10.74713 -74.90167 3291 ft 227 kts 44°
2026-04-21 15:52 10.75875 -74.89113 3020 ft 219 kts 41°
2026-04-21 15:52 10.77010 -74.88132 2739 ft 208 kts 40°
2026-04-21 15:52 10.78088 -74.87218 2472 ft 195 kts 40°
2026-04-21 15:52 10.79085 -74.86378 2227 ft 177 kts 40°
2026-04-21 15:53 10.79995 -74.85611 2046 ft 160 kts 40°
2026-04-21 15:53 10.80818 -74.84917 1800 ft 147 kts 40°
2026-04-21 15:53 10.81606 -74.84294 1629 ft 143 kts 37°
2026-04-21 15:53 10.82391 -74.83685 1453 ft 142 kts 39°
2026-04-21 15:54 10.83159 -74.83046 1269 ft 143 kts 39°
2026-04-21 15:54 10.83918 -74.82398 1085 ft 142 kts 46°
2026-04-21 15:54 10.84633 -74.81710 896 ft 143 kts 39°
2026-04-21 15:54 10.85428 -74.81105 732 ft 141 kts 36°
2026-04-21 15:55 10.86182 -74.80484 588 ft 138 kts 41°
2026-04-21 15:55 10.86909 -74.79858 399 ft 136 kts 40°
2026-04-21 15:55 10.87626 -74.79236 217 ft 135 kts 41°
2026-04-21 15:55 10.88324 -74.78639 104 ft 126 kts 41°
2026-04-21 15:56 10.88903 -74.78142 99 ft 85 kts 40°
2026-04-21 15:56 10.89257 -74.77837 91 ft 53 kts 40°
2026-04-21 15:56 10.89375 -74.77672 84 ft 15 kts 84°
2026-04-21 15:56 10.89378 -74.77605 81 ft 7 kts 109°
2026-04-21 15:57 10.89354 -74.77565 83 ft 7 kts 131°
2026-04-21 15:57 10.89313 -74.77547 85 ft 6 kts 163°
2026-04-21 15:57 10.89270 -74.77534 88 ft 6 kts 163°
2026-04-21 15:57 10.89229 -74.77519 85 ft 6 kts 158°
2026-04-21 15:58 10.89189 -74.77502 87 ft 6 kts 158°
2026-04-21 15:58 10.89145 -74.77494 89 ft 8 kts 185°
2026-04-21 15:58 10.89069 -74.77538 94 ft 17 kts 219°
2026-04-21 15:58 10.88979 -74.77617 96 ft 17 kts 222°
2026-04-21 15:59 10.88892 -74.77695 95 ft 16 kts 220°
2026-04-21 15:59 10.88826 -74.77721 95 ft 8 kts 144°
2026-04-21 15:59 10.88794 -74.77684 95 ft 4 kts 129°
2026-04-21 15:59 10.88789 -74.77678 98 ft 0 kts 129°